Location: Newark
(63.1158°N, 8.1461°E)
Time: 12:52:23
(UTC+00:00)

Envisat - Pass Details

Date: 18 December 2019
Orbit: 764 x 766 km, 98.1° (Epoch: 28 January)

Event Time Altitude Azimuth Distance (km) Brightness Sun altitude
Rises 04:37:46 0° 20° (NNE) 3,251 6.5 -25.9°
Reaches altitude 10° 04:41:07 10° 43° (NE) 2,319 6.0 -25.5°
Maximum altitude 04:44:04 15° 79° (E) 1,970 6.0 -25.2°
Drops below altitude 10° 04:47:00 10° 115° (ESE) 2,309 6.4 -24.8°
Sets 04:50:19 0° 138° (SE) 3,230 6.9 -24.5°
